This is the latest recevied weather packets stored in our database for station/object DH2PG-6. If no packets are shown the sender has not sent any weather packets the latest 1 day(s).
| Time | Temp. | Humidity | Pressure | Rain* | Wind** | Luminosity | Snow |
|---|---|---|---|---|---|---|---|
| 1777988430 | 13.33° C | 83% | 1004.6 hPa | 4.06 mm | 0 m/s | - | - |
| 1777988130 | 13.33° C | 82% | 1004.6 hPa | 3.56 mm | 0 m/s | - | - |
| 1777987833 | 13.89° C | 82% | 1004.8 hPa | 3.05 mm | 0 m/s | - | - |
| 1777987529 | 13.89° C | 81% | 1004.8 hPa | 2.54 mm | 0 m/s | - | - |
| 1777986929 | 14.44° C | 79% | 1004.7 hPa | 1.52 mm | 0 m/s | - | - |
| 1777986628 | 14.44° C | 78% | 1004.5 hPa | 1.02 mm | 0 m/s | - | - |
| 1777986328 | 15° C | 78% | 1004.5 hPa | 0.51 mm | 0 m/s | - | - |
| 1777986028 | 15° C | 76% | 1004.5 hPa | 0.51 mm | 0 m/s | - | - |
| 1777985728 | 15.56° C | 76% | 1004.6 hPa | 0 mm | 0 m/s | - | - |
| 1777985427 | 15.56° C | 75% | 1004.6 hPa | 0 mm | 0 m/s | - | - |
| 1777985127 | 15.56° C | 74% | 1004.6 hPa | 0 mm | 0 m/s | - | - |
| 1777984827 | 15.56° C | 74% | 1004.7 hPa | 0 mm | 0 m/s | - | - |
| 1777984526 | 15.56° C | 73% | 1004.8 hPa | 0 mm | 0 m/s | - | - |
| 1777984226 | 16.11° C | 73% | 1004.8 hPa | 0 mm | 0 m/s | - | - |
| 1777983926 | 16.11° C | 72% | 1004.8 hPa | 0 mm | 0 m/s | - | - |
| 1777983626 | 16.67° C | 71% | 1004.8 hPa | 0 mm | 0 m/s | - | - |
| 1777983325 | 16.67° C | 70% | 1004.9 hPa | 0 mm | 0 m/s | - | - |
| 1777983025 | 17.22° C | 69% | 1004.9 hPa | 0 mm | 0 m/s | - | - |
| 1777982725 | 17.78° C | 68% | 1004.9 hPa | 0 mm | 0 m/s | - | - |
| 1777982425 | 17.78° C | 68% | 1004.9 hPa | 0 mm | 0 m/s | - | - |
| 1777981824 | 18.33° C | 70% | 1005 hPa | 0 mm | 0 m/s | - | - |
| 1777981524 | 17.78° C | 70% | 1005 hPa | 0 mm | 0 m/s | - | - |
| 1777981223 | 17.78° C | 70% | 1005.1 hPa | 0 mm | 0 m/s | - | - |
| 1777980923 | 17.78° C | 72% | 1005.1 hPa | 0 mm | 0 m/s | - | - |
| 1777980323 | 16.67° C | 72% | 1005 hPa | 0 mm | 0 m/s | - | - |
* Rain latest hour (hover to see other rain measurements)
** Current wind speed in m/s (hover to see current wind gust speed)